Imperial, NE

2:21 AM MDT on July 28, 2017 (GMT -0600)
Imperial Municipal

Weather History for KIML - May, 2013

Change the Weather History Date:

Saturday, May 25, 2013

  Actual Average Record
Temperature  
Mean Temperature 76 °F 63 °F  
Max Temperature 91 °F 77 °F 97 °F (1964)
Min Temperature 60 °F 50 °F 25 °F (1907)
Degree Days  
Heating Degree Days 0 4  
Month to date heating degree days 204 182  
Cooling Degree Days 11 2  
Month to date cooling degree days 54 28  
Year to date cooling degree days 56 29  
Growing Degree Days 26 (Base 50)    
Moisture  
Dew Point 55 °F    
Average Humidity 60    
Maximum Humidity 97    
Minimum Humidity 23    
Precipitation  
Precipitation 0.00 in 0.10 in 2.60 in (1917)
Sea Level Pressure  
Sea Level Pressure 29.84 in    
Wind  
Wind Speed 15 mph (SE)    
Max Wind Speed 30 mph    
Max Gust Speed 38 mph    
Visibility 9 miles    
Events Thunderstorm    
T = Trace of Precipitation, MM = Missing Value Source: NWS Daily Summary

Daily Weather History Graph

Daily Weather History Graph

Search for Another Location

Airport or City:

Trip Planner

Search our weather history database for the weather conditions in past years. The results will help you decide how hot, cold, wet, or windy it might be!

Date:

Astronomy

May. 25, 2013 Rise Set
Actual Time 5:21 AM MDT 8:05 PM MDT
Civil Twilight 4:49 AM MDT 8:37 PM MDT
Nautical Twilight 4:09 AM MDT 9:17 PM MDT
Astronomical Twilight 3:24 AM MDT 10:03 PM MDT
Moon 8:55 PM MDT (5/25) 5:50 AM MDT (5/25)
Length of Visible Light 15h 47m
Length of Day
14h 43m
Waxing Gibbous, 99% of the Moon is Illuminated
May 25
Waxing Gibbous
May 31
Last Quarter
Jun 8
New
Jun 16
First Quarter
Jun 23
Full

Hourly Weather History & Observations

Time (MDT) Temp. Heat Index Dew Point Humidity Pressure Visibility Wind Dir Wind Speed Gust Speed Precip Events Conditions
12:53 AM 66.9 °F - 63.0 °F 87% 29.81 in 7.0 mi SE 17.3 mph - 0.00 in   Clear
1:53 AM 66.0 °F - 62.1 °F 87% 29.79 in 7.0 mi SE 15.0 mph - N/A   Clear
2:53 AM 64.9 °F - 57.0 °F 75% 29.78 in 10.0 mi SSE 15.0 mph - N/A   Clear
3:53 AM 64.0 °F - 53.1 °F 67% 29.81 in 10.0 mi SSE 12.7 mph - N/A   Clear
4:53 AM 62.1 °F - 52.0 °F 70% 29.88 in 9.0 mi East 10.4 mph - N/A   Clear
5:53 AM 62.1 °F - 59.0 °F 90% 29.90 in 6.0 mi ESE 13.8 mph 20.7 mph N/A   Clear
6:22 AM 60.8 °F - 57.2 °F 88% 29.99 in 5.0 mi ESE 21.9 mph 28.8 mph N/A   Scattered Clouds
6:33 AM 60.8 °F - 59.0 °F 94% 29.99 in 5.0 mi SE 21.9 mph 29.9 mph N/A   Mostly Cloudy
6:53 AM 61.0 °F - 59.0 °F 93% 29.91 in 5.0 mi ESE 23.0 mph 29.9 mph N/A   Overcast
7:06 AM 60.8 °F - 59.0 °F 94% 29.98 in 4.0 mi ESE 26.5 mph - N/A   Overcast
7:35 AM 62.6 °F - 59.0 °F 88% 29.99 in 6.0 mi ESE 23.0 mph 31.1 mph N/A   Overcast
7:53 AM 62.1 °F - 59.0 °F 90% 29.91 in 6.0 mi SE 20.7 mph 29.9 mph N/A   Overcast
8:53 AM 64.9 °F - 59.0 °F 81% 29.91 in 9.0 mi SE 20.7 mph - N/A   Mostly Cloudy
9:08 AM 66.2 °F - 59.0 °F 78% 29.97 in 10.0 mi SE 21.9 mph - N/A   Scattered Clouds
9:53 AM 72.0 °F - 60.1 °F 66% 29.88 in 10.0 mi SE 17.3 mph - N/A   Clear
10:53 AM 77.0 °F - 54.0 °F 45% 29.86 in 10.0 mi SSE 13.8 mph - N/A   Clear
11:53 AM 81.0 °F 80.7 °F 55.0 °F 41% 29.84 in 10.0 mi South 9.2 mph 17.3 mph N/A   Clear
12:53 PM 84.0 °F 82.9 °F 55.0 °F 37% 29.81 in 10.0 mi South 11.5 mph - N/A   Clear
1:53 PM 87.1 °F 85.3 °F 55.0 °F 33% 29.79 in 10.0 mi SSE 10.4 mph - N/A   Clear
2:53 PM 88.0 °F - 51.1 °F 28% 29.77 in 10.0 mi South 6.9 mph - N/A   Clear
3:53 PM 91.0 °F - 48.0 °F 23% 29.75 in 10.0 mi SE 11.5 mph - N/A   Clear
4:53 PM 89.1 °F - 52.0 °F 28% 29.71 in 10.0 mi SE 9.2 mph 17.3 mph N/A   Clear
5:53 PM 84.0 °F - 52.0 °F 33% 29.74 in 10.0 mi SSE 27.6 mph 38.0 mph N/A   Clear
6:53 PM 77.0 °F - 51.1 °F 40% 29.76 in 10.0 mi SSE 12.7 mph - N/A   Clear
7:53 PM 75.9 °F - 53.1 °F 45% 29.77 in 10.0 mi SE 10.4 mph - N/A   Clear
8:08 PM 75.2 °F - 53.6 °F 47% 29.84 in 10.0 mi SE 12.7 mph 18.4 mph N/A Thunderstorm Clear
8:43 PM 73.4 °F - 51.8 °F 47% 29.84 in 10.0 mi SE 17.3 mph 28.8 mph N/A   Clear
8:53 PM 73.0 °F - 53.1 °F 49% 29.76 in 10.0 mi SE 15.0 mph - N/A   Clear
9:53 PM 72.0 °F - 46.0 °F 40% 29.78 in 10.0 mi SE 19.6 mph 26.5 mph N/A   Clear
10:53 PM 69.1 °F - 46.9 °F 45% 29.78 in 10.0 mi ESE 15.0 mph - N/A   Clear
11:53 PM 69.1 °F - 54.0 °F 58% 29.76 in 10.0 mi SE 20.7 mph - N/A   Clear